CALSPHERE 1 1 00900U 64063C 08132.12512164 .00000141 00000-0 14936-3 0 4867 2 00900 90.1716 319.9886 0027572 0.0564 0.0568 13.70317006164409 CALSPHERE 2 1 00902U 64063E 08132.13290848 .00000075 00000-0 10000-3 0 7544 2 00902 90.1716 323.1976 0017977 341.5932 18.4555 13.52453537963022 LCS 1 1 01361U 65034C 08132.84123677 .00000009 00000-0 10000-3 0 175 2 01361 32.1424 31.8961 0009213 279.9812 79.9644 9.89274271555610 TEMPSAT 1 1 01512U 65065E 08132.72441174 .00000060 00000-0 10000-3 0 8433 2 01512 89.8230 307.5375 0071999 86.8589 274.0778 13.33250316 79132 CALSPHERE 4(A) 1 01520U 65065H 08132.34813303 .00000060 00000-0 10000-3 0 9731 2 01520 90.1898 75.7974 0071522 20.8129 339.5910 13.35287950 80622 OPS 5712 (P/L 160) 1 02826U 67053A 08131.88336339 .00000384 00000-0 14659-3 0 4274 2 02826 69.9347 12.8277 0006813 336.9489 23.1295 14.37933088109452 OPS 5712 (P/L 153) 1 02874U 67053H 08131.79169823 -.00000029 00000-0 17388-4 0 7979 2 02874 69.9724 233.1482 0006702 149.8622 210.2874 13.95904022 84382 SURCAL 150B 1 02909U 67053J 08132.17278101 .00000522 00000-0 16307-3 0 5942 2 02909 69.9553 198.1866 0004909 191.0403 169.0620 14.46087039114842 RIGIDSPHERE 2 (LCS 4) 1 05398U 71067E 08131.73129753 .00000193 00000-0 64611-4 0 2589 2 05398 87.6262 359.9262 0068157 56.8859 303.8855 14.31058934927000 RADCAT 1 06212U 72076A 08132.75310863 .00001693 00000-0 66767-4 0 4620 2 06212 98.5589 74.4833 0002279 312.8102 47.2929 15.27343434 61571